Location: Fort Worth, Tx
(32.7431°N, 97.3695°W)
Time: 12:55:08
(UTC-04:00)

Vanguard 1 Rocket - Pass Details

Date: 01 March 2024
Orbit: 652 x 4220 km, 34.3° (Epoch: 11 April)

Event Time Altitude Azimuth Distance (km) Brightness Sun altitude
Rises 07:03:46 0° 235° (SW) 8,413 11.8 -11.9°
Reaches altitude 10° 07:09:40 10° 234° (SW) 7,418 11.6 -10.7°
Maximum altitude 07:35:00 71° 156° (SSE) 3,498 10.5 -5.3°
Drops below altitude 10° 07:50:07 10° 76° (ENE) 4,792 12.5 -2.2°
Sets 07:53:00 0° 74° (ENE) 5,438 12.8 -1.6°
